Location: Dover
(48.8500°N, 53.9833°W)
Time: 02:06:08
(UTC+00:00)

BREEZE-M DEB (TANK) - Pass Details

Date: 14 November 2025
Orbit: 274 x 13338 km, 49.4° (Epoch: 13 December)

Event Time Altitude Azimuth Distance (km) Brightness Sun altitude
Rises 22:48:04 0° 254° (WSW) 2,345 7.1 -28.1°
Reaches altitude 10° 22:49:23 10° 254° (WSW) 1,731 6.2 -28.3°
Enters shadow 22:52:25 76° 237° (WSW) 850 3.7 -28.8°
